SCP
1 2 2 2 1 1 1 1 1 1 1 1 1 1 0 0 0 0 0 0 0 0 0 0 0 0 0 0 0 0 0 0 0 0 0 0 0 0 0 0 0 0 0
2 2 2 2 1 1 1 1 1 1 1 1 1 1 0 0 0 0 0 0 0 0 0 0 0 0 0 0 0 0 0 0 0 0 0 0 0 0 0 0 0 0 0
2 2 2 2 2 1 1 1 1 1 1 1 1 1 0 0 0 0 0 0 0 0 0 0 0 0 0 0 0 0 0 0 0 0 0 0 0 0 0 0 0 0 0
3 2 2 2 2 1 1 1 1 1 1 0 0 0 0 0 0 0 0 0 0 0 0 0 0 0 0 0 0 0 0 0 0 0 0 0 0 0 0 0 0 0 0
3 2 2 2 2 1 1 1 1 1 1 0 0 0 0 0 0 0 0 0 0 0 0 0 0 0 0 0 0 0 0 0 0 0 0 0 0 0 0 0 0 0 0
3 2 2 2 2 1 1 1 1 1 1 0 0 0 0 0 0 0 0 0 0 0 0 0 0 0 0 0 0 0 0 0 0 0 0 0 0 0 0 0 0 0 0
3 2 2 2 2 2 1 1 1 1 1 1 0 0 0 0 0 0 0 0 0 0 0 0 0 0 0 0 0 0 0 0 0 0 0 0 0 0 0 0 0 0 0
3 3 3 3 2 2 2 1 1 1 1 1 0 0 0 0 0 0 0 0 0 0 0 0 0 0 0 0 0 0 0 0 0 0 0 0 0 0 0 0 0 0 0
3 3 3 3 2 2 2 1 1 1 1 1 0 0 0 0 0 0 0 0 0 0 0 0 0 0 0 0 0 0 0 0 0 0 0 0 0 0 0 0 0 0 0
2 2 3 3 2 2 2 1 1 1 1 1 0 0 0 0 0 0 0 0 0 0 0 0 0 0 0 0 0 0 0 0 0 0 0 0 0 0 0 0 0 0 0
2 2 2 2 2 2 1 1 1 1 1 1 1 1 1 0 0 0 0 0 0 0 0 0 0 0 0 0 0 0 0 0 0 0 0 0 0 0 0 0 0 0 0
2 2 2 2 2 2 1 1 1 1 1 1 1 1 0 0 0 0 0 0 0 0 0 1 1 0 0 0 0 0 0 0 0 0 0 0 0 0 0 0 0 0 0
3 3 3 2 2 2 1 1 1 1 1 1 1 0 0 0 0 0 0 0 0 0 0 0 1 0 0 0 0 0 0 0 0 0 0 0 0 0 0 0 0 0 0
5 4 3 3 2 2 2 1 1 1 1 1 0 0 0 0 0 0 0 0 0 0 0 0 0 0 0 0 0 0 0 0 0 0 0 0 0 0 0 0 0 0 0
5 4 4 3 3 2 2 1 1 1 1 0 0 0 0 0 0 0 0 0 0 0 0 0 0 0 0 0 0 0 0 0 0 0 0 0 0 0 0 0 0 0 0
3 3 3 3 3 2 2 1 1 1 1 0 0 0 0 0 0 0 0 0 0 0 0 0 0 0 0 0 0 0 0 0 0 0 0 0 0 0 0 0 0 0 0
3 2 2 2 3 2 2 1 1 1 1 0 0 0 0 0 0 0 0 0 0 0 0 0 0 0 0 0 0 0 0 0 0 0 0 0 0 0 0 0 0 0 0
2 2 2 2 2 2 2 1 1 1 1 0 0 0 0 0 0 0 0 0 0 0 0 0 0 0 0 0 0 0 0 0 0 0 0 0 0 0 0 0 0 0 0
2 2 2 2 2 2 1 1 1 1 1 0 0 0 0 0 0 0 0 0 0 0 0 0 0 0 0 0 0 0 0 0 0 0 0 0 0 0 0 0 0 0 0
3 3 3 2 2 2 1 1 1 1 1 0 0 0 0 0 0 0 0 0 0 0 0 0 0 0 0 0 0 0 0 0 0 0 0 0 0 0 0 0 0 0 0
3 2 2 2 2 2 1 1 1 1 1 0 0 0 0 0 0 0 0 0 0 0 0 0 0 0 0 0 0 0 0 0 0 0 0 0 0 0 0 0 0 0 0
2 2 2 2 2 2 1 1 1 1 1 1 0 0 0 0 0 0 0 0 0 0 0 0 0 0 0 0 0 0 0 0 0 0 0 0 0 0 0 0 0 0 0
3 2 1 1 1 1 1 2 2 1 1 1 1 1 0 0 0 0 0 0 0 0 0 0 0 0 0 0 0 0 0 0 0 0 0 0 0 0 0 0 0 0 0
4 3 2 1 1 1 1 2 2 2 2 2 1 1 0 0 0 0 0 0 0 0 0 0 0 0 0 0 0 0 0 0 0 0 0 0 0 0 0 0 0 0 0
5 4 3 2 1 1 1 2 2 2 2 1 1 1 0 0 0 0 0 0 0 0 0 0 0 0 0 0 0 0 0 0 0 0 0 0 0 0 0 0 0 0 0
5 4 3 2 2 1 2 2 2 1 1 1 1 1 0 0 0 0 0 0 0 0 0 0 0 0 0 0 0 0 0 0 0 0 0 0 0 0 0 0 0 0 0
Wind_Speed
8 9 16 17 17 17 17 17 17 17 17 16 16 16 15 15 14 13 13 12 12 12 12 12 12 12 12 12 12 12 12 12 12 12 13 13 13 14 14 15 14 12 16
12 12 18 17 17 17 16 16 16 16 16 16 15 15 15 14 14 13 13 12 12 12 12 12 12 12 12 12 12 12 12 12 12 12 12 12 13 13 14 14 13 10 15
15 12 15 17 17 17 16 16 16 15 15 15 15 14 14 14 13 13 12 12 12 13 13 13 13 12 12 12 12 12 12 12 12 12 12 8 10 12 13 14 14 14 14
15 11 13 18 18 17 16 16 15 15 14 14 14 13 13 13 13 13 12 12 12 13 13 13 13 12 12 11 11 11 11 12 12 12 7 7 7 12 13 13 13 13 14
13 10 13 20 18 17 16 15 15 14 14 14 13 13 13 12 12 12 12 12 12 12 12 13 12 12 11 10 10 10 10 11 11 9 6 6 6 11 12 13 13 13 13
12 10 13 20 18 17 16 15 14 14 13 13 12 12 12 12 12 12 11 11 12 12 12 12 12 11 10 9 9 9 9 10 10 7 6 6 6 10 12 12 12 12 12
11 9 12 19 18 17 16 15 14 14 13 12 12 12 11 11 11 11 11 11 11 11 11 11 11 10 9 9 8 8 9 11 7 6 6 5 6 9 11 11 11 11 12
12 10 11 19 18 17 16 15 14 14 13 12 12 11 11 11 11 10 10 10 10 10 10 10 9 9 9 8 8 8 9 11 8 7 6 5 7 9 10 10 10 10 11
10 9 8 9 13 16 16 15 14 13 13 12 11 10 10 10 10 9 9 9 9 8 8 8 8 8 8 7 7 7 9 10 7 5 6 4 7 9 10 10 10 10 10
8 8 7 7 7 7 9 14 14 13 12 11 11 10 10 9 9 9 8 8 8 8 7 7 7 7 6 6 6 7 8 8 6 5 3 4 8 9 10 10 10 10 9
9 7 7 7 7 6 6 10 11 12 11 10 8 10 8 4 3 4 6 7 7 7 6 6 5 5 5 5 5 6 6 3 5 3 3 6 8 9 9 9 9 9 9
11 9 6 7 7 7 6 5 4 4 4 4 3 4 4 3 2 3 3 5 6 5 5 5 4 4 4 2 3 5 2 3 3 3 3 7 8 9 9 9 9 9 9
11 10 8 7 7 6 4 4 3 3 3 3 4 4 4 3 2 2 2 2 2 3 2 3 3 3 2 2 2 2 2 2 2 2 3 7 7 8 8 8 8 8 8
10 10 8 8 7 6 5 4 4 3 3 3 3 4 3 2 2 2 1 2 2 1 2 2 2 2 2 2 2 2 2 2 1 1 2 6 6 7 7 8 8 8 8
10 9 9 8 8 6 5 4 5 4 4 3 3 3 3 3 2 2 1 1 1 1 2 2 2 2 2 1 1 2 2 2 2 2 1 4 6 6 7 7 7 8 8
10 9 9 9 8 7 5 4 4 4 4 3 3 3 4 3 3 2 2 1 1 1 1 2 2 1 1 1 1 1 1 1 1 1 1 2 4 5 6 6 7 7 8
9 9 9 9 8 7 6 5 4 4 4 3 3 3 4 3 3 3 2 1 1 1 2 2 2 2 1 1 1 1 1 1 1 1 1 1 1 3 4 5 6 6 7
8 8 9 9 9 7 6 5 4 4 4 3 3 3 4 4 4 3 2 2 2 2 2 2 2 2 2 1 1 1 1 0 0 1 1 1 0 1 2 4 4 5 5
9 9 9 8 9 8 7 5 4 4 4 3 3 3 3 4 5 4 3 2 2 2 2 2 2 2 1 1 1 1 1 1 1 0 0 1 1 1 1 2 3 4 5
9 8 8 7 7 7 6 5 3 3 3 3 2 3 4 4 5 4 3 3 3 3 2 2 3 2 2 1 2 3 2 2 1 1 1 0 0 1 1 1 1 2 3
8 8 8 8 7 7 5 5 4 3 3 2 2 4 5 5 5 4 4 3 3 3 2 3 2 3 2 1 2 2 3 3 3 2 2 1 1 0 0 0 1 1 1
10 9 8 9 8 7 5 4 4 4 3 2 2 3 4 5 5 5 5 3 3 3 3 2 2 2 2 2 2 2 2 3 3 4 3 2 2 1 1 1 0 0 1
10 9 9 9 9 8 7 5 5 4 3 2 2 2 3 5 5 5 5 4 3 3 3 2 2 3 3 2 2 3 3 2 1 2 3 3 3 2 2 2 1 1 1
10 9 9 9 9 8 8 8 9 6 5 4 3 3 3 4 5 5 5 5 4 3 3 2 2 2 3 2 2 2 2 2 3 1 2 3 3 4 4 3 2 2 1
10 9 9 9 8 8 8 9 8 6 4 4 4 5 4 3 4 5 5 5 4 3 3 3 3 3 2 2 2 2 3 3 2 2 1 2 3 3 3 3 2 2 2
9 9 9 9 8 8 9 9 9 9 8 8 6 5 4 2 2 4 5 4 4 3 3 3 3 4 3 3 2 2 2 2 2 2 2 1 1 2 3 3 3 3 2
Wind_Direction
156 158 153 147 138 132 127 124 122 121 121 121 121 120 120 120 119 117 115 114 111 109 107 105 104 104 106 106 106 105 106 107 109 110 111 110 112 113 112 111 109 108 110
148 155 154 149 142 135 131 127 125 124 123 123 123 122 122 121 120 118 116 114 112 111 110 108 105 104 105 105 106 106 107 108 108 109 110 110 112 111 112 112 112 113 112
145 152 153 150 144 139 135 132 129 128 127 126 125 125 124 123 122 120 117 115 113 111 110 108 107 106 106 107 108 108 108 108 108 107 102 102 109 112 115 116 115 113 112
146 148 152 151 147 143 140 137 135 132 130 130 129 128 127 126 123 120 118 116 115 113 111 110 108 107 108 109 110 110 110 110 109 104 95 102 110 115 117 117 117 116 115
145 145 156 152 149 147 144 141 139 137 135 134 134 132 130 128 125 122 119 118 116 116 114 111 108 107 107 108 111 114 116 115 111 101 95 95 103 118 118 119 119 119 118
143 146 158 153 152 150 147 145 143 142 141 139 137 135 133 131 128 126 122 120 119 117 114 112 110 108 107 108 111 118 123 120 108 102 100 105 112 123 122 122 122 121 119
144 148 157 155 154 153 152 150 149 148 146 144 141 139 137 134 133 131 129 124 122 120 118 115 112 108 106 105 107 116 127 126 116 111 108 109 119 126 125 124 124 123 122
147 147 155 158 157 156 156 155 155 153 151 149 146 144 142 139 138 136 132 129 126 124 122 118 114 109 106 105 106 115 129 131 127 124 119 120 129 129 129 127 126 126 127
146 147 149 155 158 160 159 158 159 158 155 154 152 150 147 145 143 139 134 133 130 128 126 123 118 113 107 106 109 120 133 135 127 131 136 131 139 136 135 134 133 132 132
147 149 146 145 147 151 157 162 163 160 158 156 157 156 152 149 148 144 138 139 136 134 133 129 122 116 108 106 111 121 129 130 133 137 133 148 151 147 143 142 140 139 139
157 153 149 146 143 142 149 165 164 162 161 159 161 158 143 114 114 128 142 147 142 139 137 132 126 119 105 96 111 116 113 114 136 138 144 160 160 157 152 150 148 147 146
167 163 152 149 146 144 156 149 140 141 140 130 119 121 105 103 110 121 141 151 144 136 131 128 121 105 92 74 89 95 98 122 131 145 163 169 168 167 161 158 158 156 155
168 166 159 152 146 145 139 135 126 119 120 119 117 112 111 104 97 93 83 90 88 95 74 77 76 74 87 92 89 97 114 121 128 144 171 175 175 175 171 169 170 168 165
166 168 161 155 149 147 140 142 134 131 132 130 126 126 123 118 112 106 93 79 69 73 78 65 73 78 86 97 113 121 133 132 135 131 181 183 179 183 182 181 179 179 178
167 167 167 161 155 149 141 149 147 142 141 137 129 134 137 137 140 131 116 103 104 99 103 97 91 92 83 82 103 127 145 149 152 152 178 194 188 191 193 193 193 193 190
171 168 165 163 158 152 149 150 148 143 138 132 134 144 146 147 146 139 137 140 140 133 125 121 116 103 85 81 79 109 125 137 156 162 176 198 198 203 206 203 203 203 201
170 164 165 161 156 156 152 156 147 140 134 135 138 145 149 148 143 139 141 144 144 127 117 100 89 79 84 78 51 56 116 147 170 177 175 177 206 222 227 223 218 214 210
163 164 168 167 161 160 153 149 141 142 139 138 138 141 147 146 142 138 141 142 132 117 111 109 94 81 66 72 48 9 45 74 191 190 169 171 184 241 249 246 240 231 225
167 168 164 158 162 158 147 141 136 138 139 138 139 142 147 144 142 137 135 123 119 107 103 116 88 95 87 73 63 44 27 20 356 334 186 189 201 225 243 267 263 252 242
164 166 158 152 155 148 139 128 126 124 126 127 145 152 144 140 137 130 122 115 113 104 92 91 95 76 79 78 72 56 31 23 34 24 351 2 256 232 224 251 265 267 257
163 164 163 157 156 152 149 153 149 149 141 136 157 149 144 140 137 130 124 115 112 112 119 124 109 88 60 52 82 52 28 33 45 35 22 24 16 341 90 236 239 252 269
176 173 170 167 162 163 162 156 144 136 136 136 134 132 140 141 142 138 131 130 123 110 104 109 115 106 61 41 106 97 51 21 18 26 27 35 31 27 26 358 291 256 276
183 182 178 172 167 163 157 135 121 104 92 103 120 130 143 142 138 132 137 132 127 123 124 120 124 125 117 53 53 131 136 170 352 7 23 32 31 39 26 15 14 337 290
186 181 176 174 168 162 157 153 153 153 157 167 156 143 134 134 135 135 135 132 130 124 124 126 114 119 127 122 71 51 87 134 133 73 2 10 21 33 21 16 12 359 343
180 179 178 174 171 162 162 163 159 152 144 131 128 129 126 120 131 138 137 133 130 124 120 109 105 105 113 130 131 115 86 70 76 126 98 355 8 13 18 16 14 8 4
175 174 168 169 171 165 165 168 166 158 149 145 145 147 142 126 120 134 137 135 134 129 125 119 111 106 100 104 105 110 127 125 122 120 127 73 357 337 349 4 17 11 13